Theta_e
320 321 320 322 324 324 326 329 330 331 332 332 332 332 332 331 330 328 330 330 330 328 328 328 326 326 327 326 325 324 325 324 325 324 326 326 329 331 331 332 331 331 330 329 328 332 328 326 327 325 324 324 324 324 323 322 323 325 324 323 320 319 321 323 321 321 321 319 321 321 322 324 327 327 327 328 329 330 331 331 330 329 326 324 326
321 320 322 324 324 327 329 330 330 328 329 331 331 331 331 331 330 328 328 329 329 329 328 326 326 327 326 324 322 322 325 324 323 325 325 328 328 330 331 332 331 330 330 328 329 328 327 326 326 326 325 324 325 324 322 327 324 323 322 321 322 319 321 323 322 316 313 314 316 315 319 320 322 324 326 327 328 329 329 329 329 330 329 328 327
319 321 323 323 324 328 329 329 329 330 329 330 330 330 330 330 329 328 328 327 326 326 326 325 324 325 324 322 325 321 322 323 325 327 329 329 328 330 331 331 330 329 329 330 328 328 327 326 325 323 323 327 326 325 324 322 322 322 321 322 320 320 320 320 321 317 313 313 313 314 311 313 318 321 324 325 327 328 328 328 330 330 330 330 327
318 320 320 322 324 326 327 328 328 329 328 329 329 330 330 329 327 327 327 326 325 326 326 324 325 323 324 324 323 322 322 325 324 325 325 327 327 329 329 330 330 329 329 330 328 327 326 325 324 323 323 323 323 323 322 323 322 322 320 319 319 317 316 318 322 320 317 316 310 308 309 312 311 315 318 322 326 328 328 328 330 329 329 328 327
318 319 320 321 323 325 326 327 329 328 328 328 329 329 329 328 326 326 325 325 324 326 324 325 325 323 323 323 323 323 324 323 323 321 321 323 324 324 325 326 328 328 328 328 328 325 324 323 323 321 321 320 321 321 321 323 323 323 322 320 319 320 316 315 317 320 319 317 315 311 308 306 309 315 318 318 323 324 326 328 329 326 326 326 327
318 319 320 321 323 324 325 327 327 327 328 329 330 330 329 328 326 325 325 325 325 324 324 326 324 323 322 321 321 320 319 320 320 320 320 320 320 319 321 323 324 322 322 324 326 324 319 318 318 319 319 318 317 318 317 317 318 321 323 321 318 317 320 314 316 318 320 324 318 314 311 310 312 316 314 311 319 322 324 325 325 326 326 326 326
318 319 320 321 323 323 324 326 327 327 328 329 330 329 329 328 327 326 325 325 325 324 324 326 323 323 322 322 321 321 320 319 317 317 319 316 319 318 318 318 319 319 318 318 320 320 317 316 317 317 318 317 319 318 317 316 317 318 321 320 320 320 317 315 317 318 317 319 319 319 319 316 319 314 309 315 312 317 321 321 322 326 327 326 325
318 319 320 322 323 323 323 326 327 327 329 329 328 328 328 328 327 326 326 326 326 324 323 325 323 322 321 320 321 321 321 319 318 317 317 319 318 317 317 315 316 317 316 316 317 320 318 317 317 318 318 318 320 319 317 316 319 319 317 317 319 320 319 319 317 316 317 315 316 316 317 317 313 310 314 314 314 312 315 320 322 323 324 324 324
318 318 320 322 323 323 325 326 328 328 329 328 327 328 329 328 327 326 325 325 324 324 324 323 323 321 320 320 319 319 319 319 320 320 318 318 316 314 315 314 314 313 315 316 315 319 321 318 317 318 318 317 318 317 314 315 315 316 317 317 317 316 316 316 317 314 313 314 315 314 316 314 315 315 314 313 313 313 313 314 316 322 323 323 323
319 320 321 323 324 324 326 326 327 328 329 328 327 328 329 328 327 325 324 324 323 323 322 321 322 320 319 319 319 318 319 319 318 316 315 315 315 313 313 313 313 313 313 312 314 316 318 319 318 317 315 316 317 314 314 314 314 314 313 314 315 315 314 317 317 314 314 313 314 315 314 312 314 313 311 313 312 311 313 313 315 316 315 318 323
319 320 322 323 325 325 325 325 325 327 328 328 328 329 329 329 328 325 323 322 322 322 320 320 321 320 319 319 319 318 318 318 316 315 314 313 313 312 312 312 312 313 314 314 314 316 316 318 315 314 316 319 316 314 313 314 312 312 312 312 312 313 312 312 312 311 311 313 313 316 317 316 313 309 312 311 308 309 313 314 315 317 318 317 319
319 319 320 323 323 323 324 323 324 326 327 326 327 329 329 329 328 325 321 321 321 321 319 319 320 320 319 318 318 319 319 318 316 314 313 313 312 311 311 312 311 311 311 312 313 314 316 315 316 314 315 313 312 312 312 313 312 312 311 310 310 309 310 310 308 308 308 308 310 312 315 314 311 314 315 314 313 314 315 313 314 316 318 318 320
319 319 320 321 321 321 322 322 324 324 325 326 327 328 328 327 327 325 321 319 320 319 318 318 319 319 319 319 318 318 318 317 316 315 314 313 312 310 311 310 310 312 310 312 310 312 314 313 313 313 311 312 312 312 311 311 310 310 310 309 308 308 307 307 307 306 307 309 307 307 310 312 313 315 315 314 314 315 315 312 308 311 314 315 317
320 320 320 320 321 321 322 323 324 325 326 326 326 327 328 327 326 324 320 319 318 318 319 318 318 319 318 319 319 318 317 317 316 315 314 313 313 312 311 310 310 311 310 311 310 311 311 312 312 310 311 311 311 309 309 310 309 309 308 308 308 306 307 307 307 306 306 305 306 308 308 311 313 316 315 316 315 315 312 312 311 312 314 314 311
320 320 319 320 321 322 322 323 324 324 325 325 326 327 328 327 325 323 320 319 318 317 318 318 319 318 317 318 319 318 318 317 315 316 314 312 312 312 311 309 310 310 311 310 312 310 310 310 311 311 310 310 309 310 311 308 309 310 309 309 309 306 307 308 306 306 308 306 306 308 310 312 314 314 315 315 316 316 315 313 313 310 307 303 302
320 320 320 320 321 322 322 323 324 324 325 325 326 327 327 326 325 322 321 319 318 318 317 318 319 318 318 318 318 319 319 317 316 316 313 313 313 313 311 310 311 311 310 311 311 309 310 311 311 309 308 308 308 307 307 307 307 309 307 308 308 311 307 306 304 306 306 305 305 305 309 308 312 315 315 315 315 314 313 312 314 312 309 301 300
320 320 320 320 321 321 322 323 324 324 324 325 325 327 326 325 323 321 319 318 317 317 316 317 318 318 318 318 318 318 317 316 316 314 313 312 313 312 312 312 312 311 312 310 309 308 309 310 310 308 308 308 307 308 307 306 306 307 306 306 306 306 307 305 305 307 304 305 306 305 306 307 309 313 315 315 314 313 313 313 314 313 310 305 298
318 320 321 321 321 321 322 323 324 324 325 325 325 326 326 325 323 320 319 318 317 317 317 317 318 317 317 317 318 318 318 317 316 314 313 312 311 312 313 314 313 313 313 313 309 309 312 313 308 307 307 307 307 307 306 305 305 305 305 305 305 306 307 305 306 306 305 306 306 306 305 306 306 312 313 314 314 314 312 312 311 308 308 307 300
315 317 319 320 321 321 321 322 324 324 325 325 326 326 325 324 322 321 320 319 319 319 318 318 319 319 318 318 318 318 318 318 317 315 314 313 312 312 312 312 312 313 313 311 310 310 307 307 307 307 307 307 307 306 306 306 306 306 307 306 305 305 305 304 305 306 306 305 305 305 304 305 305 307 308 308 309 312 312 310 310 308 306 305 306
314 315 316 317 318 320 320 321 321 321 322 323 324 324 324 323 322 320 319 319 319 319 320 319 318 319 318 318 318 319 318 318 317 315 315 313 313 313 312 310 311 313 313 313 311 309 308 307 308 308 307 307 307 308 307 307 306 306 306 307 305 305 306 304 304 304 306 305 305 305 304 304 304 305 305 305 306 306 308 310 310 309 305 305 305
313 313 314 314 315 315 316 317 319 320 321 322 322 322 322 323 321 320 318 318 318 319 319 318 319 318 318 317 317 317 317 317 317 316 315 314 314 314 312 312 312 311 314 313 311 309 308 309 309 309 307 307 307 308 308 307 307 306 305 305 305 305 306 305 306 305 305 305 307 306 305 305 304 305 303 304 304 304 305 307 309 307 305 304 305
312 313 313 314 314 315 316 315 317 317 317 318 321 321 321 320 320 320 319 318 317 316 318 318 318 318 318 318 318 317 317 317 317 316 315 315 315 314 313 313 312 312 314 314 312 311 309 310 308 308 307 307 308 308 308 307 307 307 306 308 305 305 304 304 304 304 303 306 306 307 306 305 305 305 304 305 303 304 304 305 305 306 305 304 302
312 313 313 313 314 315 316 316 317 317 316 316 316 317 318 319 320 320 319 316 316 317 318 318 318 319 319 319 319 318 318 318 317 316 316 316 315 315 316 313 313 314 315 315 313 313 312 310 310 309 308 308 308 308 309 308 307 307 308 307 308 305 305 305 305 306 306 305 307 307 305 305 307 306 304 304 304 304 303 304 303 303 304 303 301
313 313 313 313 314 315 316 316 316 316 315 315 316 317 317 319 319 320 318 317 318 318 318 318 318 317 318 318 318 318 318 317 317 316 316 315 316 316 316 315 315 315 316 315 315 314 312 310 311 310 311 311 310 311 310 310 310 309 308 310 309 308 308 307 308 308 307 306 306 307 306 305 305 306 304 305 304 304 305 305 304 303 302 302 301
312 313 314 314 314 314 316 316 317 317 316 316 317 317 317 317 318 320 318 318 318 319 318 318 317 317 317 317 316 317 317 317 317 317 316 316 316 316 315 315 315 315 316 315 316 315 314 312 312 311 314 314 314 314 313 311 311 310 310 310 309 309 309 309 309 310 315 307 308 307 308 306 305 306 304 304 304 305 305 306 306 305 306 305 305
310 311 311 311 312 313 314 315 316 316 316 316 316 317 318 317 318 318 318 318 317 317 318 317 317 316 316 316 316 317 317 316 317 317 316 317 317 316 316 316 316 316 315 316 316 315 315 312 310 311 312 313 313 313 312 312 310 310 310 310 310 310 310 310 310 309 310 310 309 309 309 307 306 306 304 304 304 304 305 304 305 305 305 305 304
302 304 305 305 304 305 307 309 312 314 315 316 316 317 318 318 317 317 316 316 317 317 316 317 317 316 316 316 316 317 317 317 316 316 317 317 317 316 316 316 316 317 316 315 315 315 314 314 313 312 313 314 313 313 313 313 312 311 311 312 311 310 310 310 311 311 311 311 312 311 309 308 308 308 307 305 304 304 306 304 304 305 304 306 305
298 298 298 298 300 301 302 304 306 311 315 316 317 317 317 318 318 317 317 315 315 316 316 317 316 316 315 315 316 317 317 318 318 317 317 317 316 316 316 317 316 315 316 315 315 315 314 313 314 315 315 314 314 313 313 313 313 313 312 310 310 311 310 309 308 307 309 311 311 311 311 310 309 309 309 306 307 306 305 305 303 304 305 305 304
296 296 297 297 298 299 300 301 302 303 307 313 315 315 316 316 317 317 318 317 316 315 314 314 313 315 315 315 316 317 318 317 317 316 316 315 315 316 316 316 315 315 316 315 313 312 312 311 311 313 314 315 316 316 315 314 313 313 311 312 311 311 311 310 309 309 309 308 310 311 309 309 313 317 312 310 311 311 309 306 304 303 304 304 302
295 295 296 297 297 298 299 300 300 301 302 304 310 313 314 315 315 316 316 317 317 316 315 314 313 311 312 313 313 314 316 316 316 316 315 315 315 314 314 314 314 313 312 311 312 312 312 313 313 312 313 314 315 316 314 310 311 315 313 312 310 309 309 309 309 308 308 309 310 308 312 319 314 313 310 306 304 306 309 309 307 305 304 303 301
295 296 296 296 297 297 298 298 299 300 303 306 309 312 313 314 316 315 315 316 317 316 315 314 314 313 313 313 312 313 314 314 313 313 312 314 315 314 313 312 311 310 311 311 312 312 312 313 314 313 313 313 314 314 306 300 300 306 312 311 311 310 309 309 309 309 310 311 309 310 309 311 310 309 302 298 297 297 298 299 302 305 307 305 302
295 296 296 296 296 296 297 297 298 299 300 302 305 308 310 313 315 315 316 316 316 316 315 315 315 314 314 312 312 312 312 311 311 311 311 312 312 312 311 311 310 310 310 311 312 312 312 312 312 312 313 313 313 309 300 298 298 298 305 312 311 311 311 310 310 310 310 310 311 311 308 308 305 304 302 300 298 295 294 294 294 294 294 296 300
295 296 296 296 296 296 297 297 298 299 300 300 301 301 302 304 307 310 313 314 315 315 315 314 314 314 313 310 311 311 311 310 309 310 308 309 310 310 310 310 311 311 309 310 311 311 311 310 311 311 311 311 311 305 298 297 296 296 298 306 311 310 311 311 310 311 310 310 311 311 309 308 309 312 308 301 300 299 297 297 297 298 297 294 292
296 296 296 296 297 297 298 298 298 299 299 300 300 299 299 300 301 301 302 302 303 305 309 312 314 314 313 312 312 312 310 310 309 309 309 308 309 309 309 309 308 308 309 309 308 310 309 310 311 311 311 311 310 304 296 295 295 295 295 298 310 309 308 309 310 310 310 310 311 311 309 307 306 305 303 302 301 301 301 300 299 298 298 297 296
295 295 296 296 296 297 297 298 298 299 299 299 299 299 299 299 299 298 298 299 299 300 300 302 305 311 314 313 312 312 311 311 310 310 310 308 307 307 308 306 308 309 307 307 308 309 310 310 310 310 309 309 310 301 294 293 294 294 294 295 305 308 308 306 307 308 309 310 312 311 309 307 305 303 303 302 302 301 300 298 296 294 293 293 293
295 295 295 296 296 296 297 297 299 299 299 299 298 299 298 298 299 298 298 298 298 298 298 299 299 300 303 309 312 312 311 311 310 310 309 307 306 307 308 305 305 305 309 311 307 307 309 307 306 305 305 305 304 294 292 293 293 293 292 298 302 304 305 304 304 305 306 310 310 308 306 305 304 303 301 297 300 301 299 296 294 293 292 292 292
296 296 296 297 298 298 298 298 298 298 298 298 298 298 298 297 297 297 297 297 297 297 297 298 298 298 299 300 302 303 303 304 306 307 308 305 305 305 304 304 307 307 306 306 308 309 307 306 308 309 307 305 306 295 291 292 292 292 293 299 302 304 302 301 301 302 304 307 305 305 305 303 302 301 298 294 296 298 298 296 295 293 293 293 292
297 297 297 297 297 297 298 297 297 297 298 299 298 298 297 296 296 296 295 295 295 295 296 297 297 298 298 299 299 298 298 299 299 299 300 301 304 305 304 304 306 307 307 307 306 306 305 307 307 307 306 306 306 297 291 292 292 291 295 302 303 303 300 300 299 300 301 302 303 306 306 303 302 301 295 294 294 298 298 296 295 294 293 293 291
297 296 295 296 296 297 297 297 296 296 297 298 298 298 296 296 296 295 295 294 294 294 295 296 297 298 298 298 298 297 296 296 296 296 297 297 298 300 304 304 304 304 303 304 304 304 303 302 304 304 307 305 304 297 291 291 290 290 292 301 302 302 301 298 299 298 297 298 299 302 304 303 303 301 294 294 294 299 298 297 296 295 294 292 292
296 296 296 296 296 296 295 295 295 295 297 297 297 296 296 296 296 296 295 294 294 294 294 294 295 295 297 297 297 296 295 295 294 294 294 294 295 296 297 299 302 303 303 301 301 303 303 304 301 301 302 303 301 297 293 290 290 290 291 302 301 302 301 299 298 299 299 295 295 296 298 296 296 295 294 294 294 296 298 296 296 296 294 294 292
292 292 294 294 294 294 294 294 294 296 296 296 296 295 294 295 295 294 294 295 295 295 294 294 294 294 295 295 296 295 295 295 295 294 294 295 295 294 294 295 296 298 300 300 300 299 301 302 298 298 298 297 298 296 295 289 289 289 290 297 301 302 302 300 299 298 299 298 296 295 294 295 293 293 294 294 295 295 296 297 296 296 295 295 293
293 293 293 292 292 292 293 293 294 295 295 295 295 293 293 293 293 292 294 296 296 295 294 294 294 294 294 294 294 294 295 296 296 296 295 295 295 295 294 294 294 294 295 295 295 296 297 300 300 297 297 296 299 300 294 290 288 289 289 292 301 301 301 301 298 298 297 297 297 296 295 294 292 292 292 293 294 294 294 297 294 292 290 292 294
289 290 291 291 290 290 291 291 292 293 293 293 292 291 291 291 290 291 293 294 294 294 293 293 293 293 293 293 293 293 294 295 295 295 295 295 295 295 295 295 295 295 294 294 294 295 297 298 299 299 298 297 295 296 295 292 289 288 288 288 292 298 295 301 301 299 298 298 295 294 293 294 290 291 292 292 293 292 293 292 290 289 290 290 291
289 290 290 291 290 290 289 289 290 291 291 291 291 290 290 289 289 291 291 292 292 292 292 292 292 292 292 292 292 293 293 293 294 294 295 294 294 294 295 295 295 294 294 293 294 295 295 296 297 299 300 298 297 296 295 293 291 288 289 289 289 290 293 299 301 301 299 297 294 292 293 291 290 291 291 291 291 291 290 288 289 289 290 291 290
287 288 290 290 289 289 289 288 289 289 289 289 289 289 289 288 289 291 291 291 291 291 290 290 290 291 291 291 292 292 292 292 293 293 293 294 294 293 294 293 294 294 294 293 293 293 293 293 294 295 297 298 298 296 292 291 290 290 290 290 290 290 291 292 298 297 297 296 294 292 291 290 290 290 290 290 290 289 288 288 289 289 292 288 288
287 288 289 289 289 289 288 288 288 288 288 289 288 288 287 287 288 289 289 289 290 289 289 289 289 289 290 291 291 291 291 291 291 292 293 293 293 293 293 293 294 293 293 293 293 293 293 293 293 294 295 297 296 294 291 290 293 293 291 291 291 290 292 294 293 293 293 292 291 290 290 289 289 290 290 289 288 287 288 289 289 291 288 287 287
286 287 288 288 288 288 287 287 287 287 287 288 288 288 288 288 288 288 288 288 288 288 288 288 287 288 288 288 289 289 289 290 290 290 291 292 292 292 293 292 293 292 292 292 292 292 291 292 293 294 295 296 297 295 293 291 291 291 291 292 293 293 292 291 291 291 291 290 290 290 289 288 289 288 288 288 289 288 288 289 287 286 286 286 286
286 287 287 286 286 286 286 286 286 286 287 287 287 287 287 287 288 288 288 288 288 287 286 286 286 286 287 287 287 286 288 288 288 288 289 289 290 291 290 290 289 290 290 290 291 291 289 291 292 294 294 295 296 297 296 295 291 292 292 293 292 292 292 291 291 291 291 291 290 289 289 289 288 288 287 286 287 287 286 286 286 286 287 287 289
286 286 286 286 286 286 285 286 285 285 285 286 286 286 286 286 286 287 287 287 286 286 285 285 285 285 285 287 286 286 286 287 287 288 288 287 288 289 288 289 288 289 289 289 289 289 290 290 291 292 292 292 293 296 298 295 294 292 292 293 291 291 291 291 292 290 292 291 291 290 288 289 287 285 284 285 286 286 286 288 288 288 288 289 288
285 286 285 286 286 285 285 285 284 284 285 285 284 284 285 286 285 285 285 286 285 284 283 283 283 283 284 284 285 284 285 285 285 285 287 289 288 290 289 288 288 290 289 289 289 288 290 288 288 290 292 293 295 297 294 293 292 291 291 291 290 290 290 291 290 290 292 290 289 288 288 287 286 286 286 286 286 287 287 287 286 287 287 288 286
284 285 285 285 284 286 284 284 283 284 284 284 284 284 284 285 285 284 284 284 284 284 282 281 283 283 283 284 283 284 284 284 285 285 286 285 286 288 289 289 289 289 289 289 289 289 288 288 288 288 290 291 291 291 291 293 291 290 290 290 289 288 289 290 289 289 288 288 288 288 288 288 289 289 287 287 286 287 287 287 287 286 287 287 286
Wind_Speed
8 8 4 1 3 3 4 5 6 8 8 8 8 8 8 7 8 8 7 7 7 7 6 6 6 6 4 4 4 3 4 3 3 3 3 2 3 4 4 4 3 3 4 4 5 5 4 3 3 3 3 4 4 4 4 4 3 4 3 1 3 3 2 3 3 4 7 6 6 7 7 6 7 7 6 5 5 4 3 3 2 3 3 2 3
4 4 3 3 5 5 5 5 8 11 9 9 8 8 8 8 8 7 6 6 7 7 6 5 4 4 5 4 3 3 4 4 2 2 3 2 2 3 3 4 5 5 4 4 5 5 5 4 3 4 4 3 3 3 3 4 4 4 3 3 2 2 2 3 4 2 2 4 6 3 5 5 5 6 6 6 4 3 2 2 3 3 3 2 2
7 5 4 6 7 6 5 4 6 8 8 9 9 9 8 8 7 6 6 6 5 5 6 5 3 4 5 4 5 3 2 1 2 2 2 3 2 3 4 5 5 5 5 5 5 5 5 5 4 4 3 3 3 4 3 4 4 4 3 4 1 1 2 2 1 0 3 2 3 5 1 3 4 5 5 5 4 3 2 3 2 2 3 4 3
12 10 10 7 7 6 5 5 6 7 7 8 9 10 8 7 7 7 7 5 5 4 4 4 4 4 4 5 5 4 3 3 3 3 3 3 4 4 4 5 5 5 4 4 4 4 5 5 4 4 4 3 4 5 4 4 4 4 4 3 4 2 1 1 1 1 3 7 2 2 2 3 4 3 3 3 4 5 3 3 3 4 4 4 4
11 11 8 8 9 6 7 6 7 7 7 8 8 9 7 9 8 8 7 6 5 4 5 5 6 6 6 6 5 6 6 4 4 3 2 2 3 3 4 3 4 4 4 5 5 6 5 5 5 4 3 2 3 4 4 4 4 4 5 5 4 4 2 0 0 1 4 1 6 4 2 2 1 3 3 3 4 4 4 3 4 5 4 4 4
13 13 10 9 8 6 6 7 8 7 7 7 8 9 9 8 7 7 6 5 6 4 5 6 5 7 7 7 6 5 5 5 5 6 4 3 3 1 2 3 4 3 3 3 3 3 3 2 3 3 2 2 2 3 2 2 3 3 4 5 4 2 4 2 2 0 2 1 1 1 2 3 6 4 2 3 3 5 5 5 5 5 3 4 4
5 2 3 7 6 8 7 7 8 8 6 7 8 8 8 8 7 7 7 6 5 4 4 5 5 5 6 5 6 7 7 3 2 3 4 3 3 3 3 2 3 4 2 2 3 3 3 3 3 3 3 3 2 4 3 3 3 3 3 4 4 4 3 3 4 4 1 1 0 0 1 1 6 6 2 4 4 2 5 4 5 5 4 5 5
6 5 5 7 7 7 8 8 9 8 8 8 8 7 9 9 8 7 6 6 6 5 5 5 6 6 6 5 6 6 6 6 5 4 3 4 5 3 3 3 3 3 3 2 3 4 4 3 3 4 4 2 2 3 4 3 4 3 3 3 3 5 5 6 5 3 5 1 1 3 4 4 3 2 4 4 5 5 3 3 4 5 6 6 6
4 6 7 10 10 9 8 8 8 8 8 9 8 8 8 8 8 7 7 7 6 6 6 5 6 6 7 7 7 4 5 5 4 4 5 4 5 3 4 3 3 3 1 4 3 4 4 4 4 4 4 3 3 4 3 3 3 4 5 5 5 4 3 3 4 5 3 4 4 3 4 4 4 4 4 4 4 6 3 3 3 5 6 5 4
4 5 6 7 7 8 9 7 8 8 7 7 7 8 8 8 8 8 6 6 6 6 6 6 7 6 7 7 9 6 5 5 5 6 5 5 6 4 4 4 3 3 3 3 4 4 4 4 4 4 4 3 3 3 3 4 3 4 3 4 4 5 3 4 5 5 4 3 3 6 4 3 4 3 3 6 6 3 5 4 4 5 4 3 4
6 7 7 7 6 9 10 8 8 8 8 8 8 8 8 8 9 8 6 5 5 5 5 7 7 6 7 7 8 8 7 7 7 6 6 5 7 5 5 4 3 3 4 4 4 4 4 4 4 4 3 3 3 3 4 3 3 4 3 4 3 5 4 4 3 2 3 4 4 6 7 7 6 4 6 4 4 5 6 4 5 4 4 5 5
4 7 9 9 7 9 10 9 9 10 9 8 7 7 8 7 8 8 5 5 5 4 5 5 6 7 5 7 7 7 7 6 8 8 7 7 7 6 4 5 4 4 3 4 4 3 4 4 4 4 4 4 3 3 3 3 3 3 4 4 4 3 3 4 4 4 3 3 3 4 5 4 4 5 6 5 7 8 9 7 6 4 6 5 5
7 8 8 7 7 10 11 10 9 11 10 9 8 7 7 8 8 8 6 5 5 5 6 6 6 7 6 6 5 6 6 6 6 6 5 7 6 6 5 5 5 5 3 5 3 3 4 5 4 5 4 3 3 3 3 3 3 4 4 4 4 4 3 4 5 3 3 4 5 1 4 4 4 4 5 6 5 7 9 9 2 2 5 5 1
8 7 8 10 6 7 10 11 10 10 11 10 9 8 8 8 8 8 6 5 5 5 6 6 5 5 5 6 6 6 6 6 6 6 4 5 6 6 6 6 5 4 4 4 2 2 3 3 4 4 3 4 3 3 3 2 3 4 4 4 4 3 3 4 5 4 3 3 3 5 3 4 4 5 6 7 8 8 7 9 7 5 4 4 1
7 7 8 10 7 9 10 12 11 9 11 11 10 9 9 9 9 9 8 6 7 7 6 7 6 6 6 5 7 5 7 6 6 6 7 6 4 6 5 5 6 4 5 3 2 3 3 3 4 4 3 4 3 3 3 3 3 4 4 4 3 3 3 4 4 4 4 3 2 3 5 3 5 5 6 6 7 7 8 8 11 11 3 2 2
2 4 6 6 6 6 7 8 9 8 10 10 11 10 9 9 9 9 9 8 8 8 7 8 7 6 6 7 6 6 6 6 5 4 5 6 6 6 5 5 6 5 3 3 3 3 4 4 4 4 3 3 2 3 3 3 3 4 3 4 4 1 4 5 3 4 5 3 4 3 5 3 3 6 6 7 6 6 6 6 6 8 10 4 2
3 1 3 5 5 6 5 4 6 7 8 10 10 9 10 10 9 8 7 6 6 6 7 6 7 7 6 7 7 6 7 8 7 6 6 4 6 6 6 4 5 5 5 3 4 3 3 4 4 3 3 3 3 2 3 3 3 3 4 4 4 2 4 4 1 5 4 3 4 4 5 4 4 4 5 6 6 6 5 6 6 9 9 10 4
4 4 3 4 4 3 1 0 2 4 5 8 8 7 8 9 10 9 8 8 6 7 7 7 7 7 7 7 6 7 7 7 7 8 6 6 4 5 4 4 4 4 5 4 4 4 3 3 4 3 2 3 3 2 3 3 3 3 3 3 2 2 4 3 2 3 3 2 4 4 3 5 3 5 6 5 6 6 6 6 4 3 5 10 5
6 6 4 3 3 3 1 1 1 2 3 3 4 4 4 3 5 7 9 8 8 6 6 6 8 7 7 8 8 6 6 7 6 7 6 6 6 5 4 4 4 4 5 4 4 4 4 3 4 4 3 3 2 3 2 2 3 3 2 4 2 3 4 4 3 3 2 3 5 5 3 4 3 4 4 3 4 6 6 6 5 5 2 4 8
7 7 7 8 7 5 5 5 4 4 4 3 4 3 3 3 5 5 5 6 7 8 7 7 6 7 7 7 6 7 7 7 7 7 6 6 5 5 5 5 4 4 4 4 4 4 4 4 3 3 3 2 3 2 2 2 2 2 2 3 2 3 4 4 3 2 3 3 5 5 4 4 3 4 4 3 3 3 4 6 6 6 4 3 5
6 8 8 9 9 11 10 7 7 6 5 5 4 4 4 4 5 7 6 6 7 7 6 5 6 6 7 6 5 5 6 6 7 7 7 6 5 6 6 5 5 4 4 4 4 4 4 4 4 4 4 4 3 2 1 1 1 1 1 2 3 3 4 2 2 4 3 4 5 5 4 3 2 6 5 4 3 2 3 4 4 5 6 6 5
6 6 9 9 11 11 10 8 6 7 6 6 3 5 5 6 5 5 3 5 5 4 5 5 5 7 8 8 7 6 6 7 8 7 7 6 6 6 5 5 5 4 4 4 4 4 4 4 4 4 4 2 2 1 1 1 1 1 2 2 2 3 3 2 2 4 3 3 4 5 4 4 3 5 4 4 3 3 3 5 6 6 7 7 4
4 5 6 6 4 5 7 10 12 10 10 10 3 5 6 9 8 8 5 3 3 4 5 6 7 8 9 9 10 9 8 8 9 7 6 6 5 5 6 7 5 4 3 4 4 4 4 3 3 3 3 2 2 2 1 2 2 1 1 1 1 2 3 3 3 2 2 2 5 4 3 3 3 5 3 2 2 4 3 4 5 5 6 7 5
5 6 6 5 3 3 6 5 4 3 3 4 5 6 7 11 12 11 9 8 7 6 6 5 5 6 8 9 8 8 10 9 9 7 8 6 6 5 5 6 5 5 6 4 4 5 4 3 4 3 3 4 3 2 2 1 2 3 2 2 1 1 1 2 3 3 3 4 4 4 2 3 3 5 3 3 3 3 4 4 4 2 4 5 4
9 8 7 5 4 2 2 5 5 4 5 5 6 7 8 5 4 8 9 10 9 7 7 7 9 10 10 11 9 8 7 8 8 7 7 6 5 5 4 5 5 5 5 5 4 3 4 4 4 4 3 4 4 4 3 2 1 2 3 3 3 1 1 1 2 2 4 3 3 4 3 2 4 5 3 3 3 4 2 4 4 4 4 4 3
9 9 10 11 8 7 7 6 5 4 5 5 5 5 3 1 3 3 7 6 5 5 5 7 8 10 8 11 10 10 9 7 7 8 7 5 6 7 6 6 6 7 6 7 7 5 5 4 4 4 3 3 3 3 4 4 3 2 3 3 3 3 2 2 2 3 4 3 3 3 2 3 4 4 2 2 3 4 3 4 4 3 3 3 4
11 11 11 11 12 10 9 7 6 5 5 4 4 4 3 3 2 3 2 3 5 5 7 10 8 9 9 9 9 10 8 8 5 7 8 9 7 6 7 8 7 7 7 6 4 5 4 5 4 4 4 4 3 3 4 4 3 3 4 4 3 3 2 2 1 2 2 3 3 3 3 3 4 4 3 3 3 3 4 4 3 4 3 5 4
12 13 12 10 8 9 10 9 8 7 7 6 5 4 4 3 3 3 5 4 3 6 6 7 9 9 11 12 11 9 10 11 8 8 9 9 8 7 8 8 6 6 6 6 6 6 4 4 4 4 4 4 4 4 4 4 4 4 4 3 4 4 3 2 2 2 1 1 2 2 2 2 3 3 4 4 4 3 3 4 3 3 4 6 5
13 11 9 10 11 10 11 11 10 9 8 6 6 6 5 4 3 3 3 5 7 6 3 4 4 8 9 8 9 8 10 11 11 9 8 9 9 9 8 8 8 7 7 7 5 4 4 4 4 4 4 4 6 6 6 6 6 4 4 4 4 4 4 4 2 2 1 2 1 1 2 2 1 4 5 6 5 5 6 5 1 3 4 6 5
11 11 10 9 10 11 12 11 12 10 8 7 5 6 6 6 6 4 4 4 7 8 7 4 3 1 3 4 5 5 7 8 9 8 8 7 7 6 5 4 5 6 5 4 5 4 5 5 5 4 4 5 5 5 7 11 9 7 6 4 3 3 3 4 3 3 2 1 2 1 0 4 4 5 6 7 7 5 3 5 7 6 6 5 5
10 11 10 11 11 11 12 13 12 12 10 9 8 7 6 7 7 7 7 5 5 6 5 5 5 4 4 4 4 3 4 6 6 6 5 5 6 6 6 5 4 4 5 5 5 5 5 5 7 7 6 5 5 5 9 9 9 8 6 5 5 5 3 3 4 4 4 4 2 1 2 4 4 5 4 7 8 8 8 8 7 5 4 7 6
10 10 10 12 13 12 13 12 13 13 13 11 10 11 10 8 7 7 7 7 7 6 5 3 3 4 4 4 3 3 4 4 4 4 4 4 4 4 5 5 5 5 4 4 6 6 6 6 5 6 7 7 6 7 9 8 7 7 6 5 5 5 5 5 5 5 4 4 3 3 2 2 2 3 4 6 7 9 10 10 10 9 8 7 4
9 12 12 11 11 10 12 13 13 13 14 13 10 12 11 10 10 9 9 9 8 7 6 6 5 5 5 3 2 2 2 3 3 4 3 3 4 4 4 5 7 5 3 4 4 4 5 4 5 6 6 6 5 7 9 8 7 6 6 3 4 4 5 5 5 5 5 4 4 5 4 2 3 5 4 4 6 7 9 11 11 11 11 10 9
10 10 10 9 9 9 11 13 13 12 12 11 11 12 10 10 10 10 11 10 11 10 9 8 7 6 6 5 4 4 3 4 5 5 4 2 2 1 1 2 2 2 3 2 2 5 5 6 7 7 7 6 6 6 8 6 3 3 3 2 2 2 3 4 5 5 4 5 5 6 6 5 3 3 4 5 5 6 5 6 6 6 5 7 9
8 10 9 10 10 10 12 12 12 11 10 11 12 11 10 12 11 11 10 11 12 12 12 10 10 7 5 5 5 4 4 5 5 4 3 3 6 6 4 3 0 3 4 1 4 4 4 4 4 4 4 5 4 4 6 6 5 5 4 2 2 2 3 3 3 3 4 4 5 6 6 6 5 5 5 7 7 7 7 6 6 5 5 4 4
7 9 9 9 9 9 10 10 8 10 10 11 11 11 12 11 11 12 11 11 13 14 13 12 13 12 11 9 6 5 6 5 5 4 3 2 5 2 3 1 1 2 6 7 3 3 3 2 4 4 5 3 3 2 4 5 6 6 5 3 2 3 3 3 3 3 3 4 5 5 5 5 5 5 7 9 9 8 8 8 7 5 5 4 4
8 8 8 7 7 9 9 9 10 11 10 10 9 11 12 13 14 12 11 12 13 13 12 12 13 12 12 11 11 11 10 9 9 8 5 2 2 1 2 2 2 3 2 2 5 5 1 5 4 8 7 4 5 3 4 5 5 7 4 3 3 3 3 3 3 2 4 4 5 5 6 6 5 5 8 10 11 11 8 8 7 6 5 5 5
7 7 7 7 7 8 9 9 10 12 10 8 9 10 11 12 13 13 13 12 12 11 9 11 11 10 9 9 10 10 10 10 10 10 9 8 6 2 1 2 2 2 2 4 3 1 2 6 6 6 7 6 6 4 7 7 7 9 7 5 5 6 4 4 2 1 3 4 5 9 8 7 7 6 10 11 11 10 8 8 8 8 6 6 3
7 8 8 7 7 8 8 9 10 11 9 9 9 12 12 12 12 11 12 12 11 10 10 9 9 8 9 8 7 9 9 9 9 8 7 8 8 7 4 3 2 1 2 1 1 2 2 2 4 4 4 5 5 3 6 8 9 8 7 4 6 6 6 4 5 4 2 3 3 6 10 10 9 10 14 13 12 9 8 8 8 8 7 6 5
8 8 6 5 4 8 10 11 11 9 7 9 9 11 12 11 10 10 12 10 9 8 7 7 7 8 8 9 7 8 8 8 7 6 7 6 5 6 8 7 6 4 3 2 1 3 4 4 3 4 5 5 5 4 6 10 11 11 11 6 6 7 6 6 5 6 6 3 3 4 4 8 12 13 14 14 12 11 9 7 7 8 8 7 5
6 5 5 7 8 9 10 9 6 5 5 6 8 10 10 8 8 9 10 8 7 7 7 7 7 8 8 9 8 8 9 8 6 5 5 7 7 7 7 7 7 7 6 6 5 4 4 4 3 4 4 4 3 4 4 10 8 9 9 8 6 7 6 7 7 5 6 7 7 6 4 6 9 12 13 14 12 10 9 8 7 8 7 7 8
5 5 5 7 7 8 9 9 9 9 9 8 9 11 8 8 9 10 8 6 7 8 8 9 9 9 9 9 10 9 9 8 8 8 9 9 7 7 7 6 7 6 7 7 6 4 3 5 4 3 3 3 2 4 3 5 7 6 7 9 6 6 6 8 5 6 5 6 8 7 7 8 10 10 11 11 11 10 10 6 7 7 10 14 8
6 7 5 6 8 9 9 8 8 9 8 8 11 12 10 9 12 9 6 6 6 7 8 8 9 9 9 10 9 11 10 8 9 9 9 9 8 8 8 8 8 8 7 8 8 8 7 6 5 3 1 2 2 1 5 3 5 6 6 8 11 6 9 5 9 8 8 8 5 5 4 7 9 9 10 11 12 12 9 7 11 12 13 12 9
5 4 4 8 9 9 9 9 8 9 9 8 10 10 10 11 10 6 6 7 8 8 9 9 9 8 8 8 8 8 8 8 9 9 9 9 9 8 7 8 7 7 7 7 8 8 8 8 8 9 8 5 1 0 1 3 2 3 3 5 6 10 9 7 6 8 8 6 6 6 7 11 10 11 12 13 13 11 9 12 12 12 13 10 7
6 6 8 9 10 10 10 10 8 8 8 7 7 9 9 9 5 5 7 7 7 8 8 8 8 9 9 8 8 8 8 8 8 9 9 9 9 9 9 8 8 8 8 7 7 7 7 7 8 8 8 8 7 1 2 5 8 6 5 5 6 6 5 8 4 3 4 6 7 9 11 12 11 11 13 12 10 11 14 12 12 12 10 7 7
7 8 8 8 9 9 10 9 8 7 7 6 7 7 9 3 3 4 4 4 5 6 7 6 6 6 6 6 8 9 9 9 9 8 8 7 7 8 7 5 6 7 7 7 7 7 7 7 7 8 8 8 6 4 0 3 5 6 6 8 10 11 7 2 3 4 2 7 8 9 9 6 6 10 9 7 7 8 11 13 12 10 6 7 7
7 5 6 7 8 8 7 7 7 5 5 6 6 6 4 4 5 5 5 6 7 8 7 7 7 6 4 4 5 5 5 6 6 6 5 5 6 6 7 7 7 6 6 5 5 5 6 7 6 6 7 8 9 5 4 3 4 4 5 5 5 7 8 9 7 5 5 4 6 6 7 11 8 6 7 5 8 7 7 6 5 6 7 7 7
5 5 7 6 7 6 5 6 5 3 4 4 5 5 4 4 4 4 4 6 6 6 6 6 6 6 6 6 6 7 7 5 5 4 5 5 5 4 5 5 5 6 6 7 6 6 4 5 7 7 6 7 8 7 6 5 3 1 1 4 4 5 7 6 6 5 5 5 6 6 6 5 6 7 7 6 4 4 4 5 4 5 6 6 6
7 4 5 6 5 5 5 5 4 3 4 4 4 4 3 4 3 3 3 5 4 4 4 4 4 5 6 5 6 6 6 6 7 7 6 3 4 4 3 3 2 0 2 4 6 6 6 3 4 5 6 7 6 8 8 4 7 9 10 8 7 7 7 7 11 13 6 7 7 7 6 7 6 6 5 1 2 4 4 4 4 5 5 6 6
4 4 5 5 4 4 5 5 3 2 3 4 4 3 3 3 3 3 3 4 4 3 4 3 3 4 4 5 5 5 4 5 5 5 6 8 7 6 4 3 5 7 9 6 5 6 5 3 4 6 5 5 7 9 11 10 6 10 12 13 12 12 11 10 11 16 14 10 9 9 7 7 4 2 0 1 3 4 5 5 5 4 5 6 6
4 5 5 5 5 4 5 5 3 3 3 3 3 3 3 3 2 2 2 3 3 3 3 4 4 4 4 4 4 5 5 5 4 5 5 4 7 10 7 4 4 8 9 10 9 7 6 6 4 5 7 10 13 15 17 14 8 11 12 13 15 15 14 16 15 4 3 7 7 8 8 8 8 7 7 6 5 4 5 5 5 5 6 7 6
Wind_Direction
203 210 217 166 163 194 169 146 135 117 125 133 133 133 131 134 134 133 144 144 141 137 137 136 131 123 113 111 110 102 125 127 115 114 111 124 129 126 129 122 131 143 153 147 141 141 139 142 139 153 152 144 147 161 159 145 138 136 134 91 120 104 70 74 111 114 104 76 65 66 56 44 55 61 58 49 48 44 43 70 93 76 76 53 62
189 205 196 163 182 184 164 150 137 138 139 137 137 131 133 136 139 134 136 140 142 143 137 135 136 147 135 137 135 133 137 141 129 135 140 135 127 124 132 140 154 157 156 153 143 140 142 150 163 172 165 159 153 143 143 133 128 124 133 77 1 119 128 138 185 100 37 131 123 84 61 52 51 50 57 57 41 35 45 81 89 97 81 82 45
196 199 199 196 186 180 157 141 132 131 133 137 135 131 138 140 135 134 134 133 127 130 138 138 124 119 131 152 147 121 80 86 92 115 127 132 116 135 148 155 152 153 156 149 141 144 149 154 173 172 163 151 131 130 142 134 135 136 135 139 128 34 100 105 174 80 145 120 95 98 59 72 17 35 38 37 51 53 45 67 67 89 84 70 52
187 196 201 188 184 174 145 139 135 131 138 138 141 141 144 143 139 140 137 127 128 139 131 105 115 107 87 107 96 93 134 102 80 85 86 101 118 138 152 156 152 148 144 136 131 147 160 166 164 166 169 162 151 145 150 146 128 125 119 132 135 94 34 33 75 173 147 147 104 97 180 115 98 67 56 28 33 47 46 65 63 65 68 62 54
179 196 200 184 182 167 153 140 138 140 146 147 146 148 151 153 150 145 136 137 139 138 126 123 108 90 99 89 89 85 71 77 96 70 97 125 117 128 151 135 135 135 142 149 152 158 162 161 159 155 137 124 128 137 158 168 164 151 141 140 159 156 201 49 326 124 182 202 140 117 64 41 186 139 125 38 20 40 33 42 64 53 53 57 78
178 191 188 176 168 137 141 144 143 140 145 148 150 146 147 146 141 133 124 129 142 134 128 130 133 135 135 130 127 115 120 133 153 162 150 150 157 147 95 128 127 125 136 137 134 136 119 104 106 114 110 99 124 146 142 118 142 147 172 158 164 203 156 125 194 106 161 305 82 137 170 168 160 171 114 121 76 63 42 41 47 52 51 63 63
191 197 140 158 156 147 147 146 144 143 139 141 150 144 141 142 142 137 136 134 132 127 132 130 125 141 145 144 139 144 146 171 130 125 136 140 124 123 118 76 89 105 75 100 116 106 101 98 109 114 118 126 116 117 125 157 152 171 156 153 180 157 145 166 179 191 93 122 84 225 156 125 149 136 148 117 111 66 45 39 39 45 56 64 62
169 171 161 166 163 157 151 141 145 146 140 144 146 146 146 147 143 139 134 133 133 129 140 145 144 150 138 127 130 138 157 151 143 139 130 134 113 104 84 61 53 72 98 98 120 107 97 87 108 117 115 124 120 111 125 122 96 81 127 158 150 165 173 169 187 175 167 196 32 81 80 91 79 101 111 137 114 124 100 56 54 51 58 43 40
149 176 176 178 168 154 152 143 139 140 148 151 154 153 146 141 137 134 137 136 133 140 148 160 153 154 142 133 128 144 138 131 125 118 117 112 100 77 82 70 56 37 60 99 86 112 119 125 121 114 114 114 106 96 81 92 117 125 122 129 140 138 158 169 150 179 150 158 108 64 82 72 69 70 93 71 121 126 93 104 109 78 72 48 43
150 183 190 185 164 147 149 133 137 144 143 142 139 138 142 140 140 140 142 140 136 140 150 159 155 145 139 143 143 146 133 123 123 120 119 123 118 115 108 95 99 71 44 62 89 105 121 117 115 115 115 110 94 112 113 95 95 99 115 133 137 125 142 155 171 177 172 151 136 151 123 101 76 66 64 103 71 57 136 135 91 98 87 43 50
175 184 190 184 150 145 149 150 142 140 142 145 145 141 143 145 141 139 141 129 127 136 146 158 155 147 147 151 151 146 144 135 126 117 119 121 127 133 121 113 91 84 68 57 77 106 106 111 112 106 95 95 101 98 103 107 93 95 98 99 111 131 141 116 92 99 135 132 131 148 157 160 164 162 173 163 136 131 115 98 96 82 97 98 45
183 185 191 174 148 141 149 149 147 150 147 147 148 142 142 144 144 133 129 129 121 120 127 143 148 149 148 150 150 146 141 137 136 138 143 139 137 129 124 102 84 72 73 78 78 97 109 98 93 90 94 94 88 98 96 93 86 83 79 90 92 91 105 109 118 117 108 99 129 144 155 149 132 146 170 147 133 142 131 126 124 115 78 79 97
199 193 191 179 161 149 152 154 154 160 161 149 148 146 140 142 144 141 140 132 127 134 137 143 147 156 149 146 144 139 131 132 132 133 145 135 133 124 117 113 103 84 73 94 99 134 129 113 108 109 99 96 110 99 88 84 86 77 81 78 82 96 114 124 118 132 148 149 159 144 145 147 163 149 130 117 103 124 130 124 103 100 123 128 147
184 174 184 183 176 154 159 163 165 164 164 154 152 154 152 150 146 145 145 134 128 134 140 137 142 141 139 142 140 136 129 128 131 131 134 132 136 134 136 140 131 132 129 124 149 118 94 104 106 101 108 113 108 105 100 89 86 85 81 85 85 82 88 97 108 112 95 103 124 119 124 147 152 144 136 128 135 131 131 130 124 97 106 123 65
174 161 179 194 188 171 173 174 173 165 161 157 159 163 156 155 151 150 144 142 137 143 136 136 136 135 135 142 139 141 139 135 140 141 140 133 130 130 136 135 131 153 142 150 94 95 98 99 112 114 114 111 108 98 85 76 80 83 82 96 82 77 88 93 92 102 94 92 84 118 121 125 137 138 134 136 135 140 143 149 137 131 90 46 44
139 130 167 187 201 193 188 174 170 165 161 164 166 167 158 154 154 157 157 153 148 148 144 143 140 138 139 140 148 144 134 124 119 123 131 138 143 140 147 148 143 138 127 108 73 93 116 114 108 113 109 104 99 108 103 94 85 95 85 91 92 46 102 90 105 95 95 101 107 102 96 119 136 132 130 135 132 136 132 137 135 127 132 113 45
29 56 144 179 202 214 204 178 161 163 165 172 174 170 161 154 158 155 141 130 130 130 125 127 134 135 142 144 145 143 141 141 144 144 141 143 139 142 143 154 136 129 120 98 96 70 95 124 119 112 105 107 86 80 94 89 71 77 96 99 95 78 87 81 79 98 100 105 96 110 126 135 141 129 128 132 134 128 136 151 164 151 146 131 138
40 32 67 149 187 218 259 78 128 161 160 165 174 171 163 162 162 151 143 138 133 129 126 132 134 137 143 147 150 150 145 141 143 144 143 131 123 115 111 119 132 128 115 109 102 94 86 99 109 95 88 85 105 95 97 90 89 80 91 91 110 106 88 62 44 88 95 102 96 75 89 104 129 134 145 143 142 147 144 160 156 133 156 139 157
49 39 30 51 135 154 70 84 70 80 146 156 155 154 149 143 150 147 145 136 137 137 140 144 146 153 156 154 149 139 136 138 140 138 139 132 130 132 133 132 111 106 110 111 105 95 97 97 103 105 93 99 96 109 102 90 103 107 83 93 70 84 87 67 19 52 51 75 82 74 64 88 100 123 117 121 139 151 158 160 165 155 159 126 139
76 66 49 46 33 58 92 100 83 55 61 61 69 75 106 104 114 109 113 129 136 145 151 142 139 135 141 142 141 138 140 141 142 137 132 132 137 137 134 124 130 115 117 124 119 114 115 115 106 110 110 121 126 119 103 104 83 93 95 89 60 76 77 77 57 31 69 74 82 71 45 79 92 102 100 115 144 159 161 167 174 172 143 126 128
94 96 94 82 71 58 36 42 76 59 66 83 80 101 112 118 119 117 131 140 145 152 140 136 131 127 123 115 114 119 124 129 128 134 136 147 152 150 144 137 114 122 135 132 130 127 127 127 127 140 150 161 143 129 55 87 88 89 45 56 51 64 85 43 63 47 36 69 78 84 66 51 91 107 114 109 105 122 145 170 176 153 144 148 138
102 103 103 107 107 114 121 100 77 75 32 28 57 112 112 93 82 99 130 142 139 118 130 138 129 121 122 125 124 122 129 135 138 147 150 155 157 148 140 130 137 154 148 146 139 129 130 138 148 159 162 149 129 111 82 108 136 97 44 34 48 64 77 52 55 64 39 55 82 88 63 61 74 96 102 103 129 130 148 149 170 170 168 164 164
108 99 90 91 108 120 134 144 151 154 153 152 157 70 65 111 128 156 156 88 96 139 155 155 148 142 143 137 134 136 138 144 145 150 147 152 156 150 150 140 142 152 164 151 150 139 141 153 156 161 144 150 172 155 135 143 131 107 99 38 69 100 116 115 98 87 63 67 72 70 54 45 60 75 63 70 89 109 124 143 163 170 170 168 168
59 53 61 63 79 124 131 120 95 110 138 108 88 105 149 164 166 154 137 138 149 162 161 146 119 103 110 110 118 133 140 145 148 149 151 156 158 157 146 136 151 165 164 173 160 153 142 157 167 153 165 180 179 152 143 147 153 144 143 129 77 69 86 127 131 116 87 77 96 84 54 62 75 83 61 74 61 76 100 117 114 121 150 154 154
57 52 42 31 7 352 71 95 90 91 89 99 119 145 183 177 133 141 148 154 158 159 144 121 117 118 124 125 126 124 127 137 136 139 146 144 144 140 135 146 155 170 181 166 179 149 150 165 162 170 180 183 181 158 154 150 160 160 154 137 127 147 149 109 92 84 84 94 87 111 130 84 76 83 49 64 72 81 77 99 111 119 123 128 109
47 50 45 44 32 25 29 42 70 78 90 104 118 149 198 140 183 128 150 133 128 143 113 111 120 124 128 126 126 117 111 104 121 121 107 122 164 157 161 161 185 174 189 188 173 169 164 177 176 181 183 190 183 161 159 165 165 147 133 132 136 149 144 110 95 85 92 95 106 111 125 118 100 102 83 40 55 82 76 80 90 84 96 93 95
42 39 39 40 30 20 19 30 47 66 86 96 112 133 153 146 185 112 122 125 147 107 104 123 130 129 124 121 123 123 119 109 111 127 153 184 182 170 170 176 186 177 186 194 172 164 178 172 187 167 178 186 168 155 160 160 165 169 154 144 130 123 111 110 94 90 88 99 105 115 139 143 132 136 130 113 86 59 77 77 85 102 93 96 87
43 40 35 34 30 23 21 21 32 42 59 74 83 90 103 104 121 125 141 147 95 95 126 137 143 145 146 146 141 149 137 138 171 189 190 178 178 177 180 181 173 181 181 188 186 183 178 177 181 179 184 162 154 163 168 166 171 171 159 153 156 154 148 133 127 63 88 125 118 114 129 168 158 154 145 154 136 106 82 76 45 89 95 96 93
44 36 30 34 34 26 24 23 22 28 40 56 69 77 76 67 58 66 90 113 117 132 167 145 115 154 155 153 149 157 160 163 175 181 190 180 179 185 187 179 180 186 189 183 164 159 162 184 189 185 176 167 173 178 178 175 170 177 177 174 176 175 171 165 180 203 210 202 186 128 122 149 169 153 158 159 167 156 139 123 138 115 106 106 102
45 41 37 36 35 34 28 25 23 23 22 29 56 69 70 70 55 53 67 104 128 150 162 161 114 101 118 135 146 154 166 165 168 178 183 180 174 174 183 194 197 193 180 158 150 158 171 179 180 193 191 184 188 189 189 183 180 174 180 180 172 184 178 172 181 210 244 245 215 211 201 141 131 134 143 147 142 135 140 150 162 145 123 103 112
45 38 34 34 34 32 30 29 25 25 25 28 30 48 62 64 64 59 53 48 87 119 143 152 135 139 137 136 139 144 146 155 163 161 169 171 175 174 181 196 197 192 177 165 154 163 181 183 182 179 190 203 200 201 197 188 191 181 172 175 182 192 188 182 189 194 207 211 225 199 121 127 121 108 98 109 113 113 105 100 100 107 127 143 132
41 38 33 38 34 30 31 31 30 29 32 31 36 39 39 45 61 71 72 65 67 73 82 89 105 111 110 104 105 152 146 122 126 139 156 174 168 170 179 190 185 187 192 160 171 185 183 183 183 187 190 199 206 205 195 200 199 192 190 182 183 185 191 197 195 202 202 189 183 160 150 137 126 136 134 113 95 90 95 92 87 77 68 55 73
41 41 36 32 28 27 37 38 37 33 37 29 38 53 49 48 48 49 57 57 57 62 65 59 50 57 55 67 88 106 111 135 141 144 134 142 157 166 176 177 197 195 145 167 190 182 191 182 182 189 204 210 218 196 191 201 206 211 222 212 198 193 184 197 200 203 193 182 165 154 156 141 143 139 118 111 113 93 79 80 77 74 63 63 62
49 47 46 36 34 33 38 40 41 37 34 26 33 46 49 51 54 51 59 61 61 49 45 43 49 57 58 48 56 60 35 17 18 22 27 44 73 157 195 182 153 120 145 162 185 198 193 187 193 195 200 205 212 200 196 190 176 205 236 264 253 218 205 196 207 202 190 179 171 166 164 162 157 130 134 129 118 109 103 82 67 55 54 43 49
53 53 49 46 38 39 40 38 33 32 33 35 34 30 38 42 43 48 46 58 60 57 49 44 38 35 57 77 62 60 74 85 84 81 68 45 44 22 25 355 170 137 99 154 195 208 217 213 210 218 207 204 222 180 189 164 167 181 190 211 287 256 204 205 204 197 186 180 176 176 173 165 161 156 160 150 132 129 112 98 83 69 62 53 50
46 59 55 54 47 46 44 41 33 33 34 39 38 31 39 37 38 42 41 47 56 56 49 43 41 35 32 26 33 51 59 69 91 98 88 76 97 193 253 186 96 103 164 204 264 254 206 100 45 30 300 262 253 191 179 176 167 163 144 174 219 231 203 203 212 193 191 187 173 167 162 161 163 163 164 158 143 132 118 111 104 102 89 79 64
64 60 55 48 48 53 48 46 42 35 31 31 41 44 42 41 39 31 34 40 47 49 44 46 46 37 33 31 35 43 44 43 47 49 42 66 103 143 303 307 239 177 171 149 225 227 86 102 218 218 225 231 242 177 170 172 170 159 153 193 201 189 174 185 210 188 188 179 169 170 164 159 157 168 169 160 151 132 123 122 120 109 101 94 70
78 72 70 55 51 60 58 55 50 42 30 24 35 51 48 47 43 36 32 33 41 43 39 44 46 41 37 35 38 42 44 42 44 39 34 29 17 354 266 229 208 231 179 213 259 272 157 185 202 208 208 208 234 184 177 183 183 183 192 188 182 171 174 167 153 129 169 179 183 174 161 160 164 176 171 168 164 138 129 135 131 125 121 115 110
65 69 69 60 52 59 65 64 61 55 35 28 34 48 49 45 45 42 40 33 30 31 31 36 40 38 41 36 38 44 44 43 45 38 35 32 24 16 348 341 324 243 218 194 189 232 244 223 227 235 226 220 234 207 185 197 193 191 196 199 171 163 163 175 155 142 124 156 179 179 178 171 170 174 171 174 175 157 143 151 148 133 136 146 181
61 57 60 59 46 58 55 56 56 53 48 49 45 53 54 44 38 40 42 34 19 27 24 28 28 30 34 33 30 40 42 41 36 37 37 38 24 30 22 16 8 348 319 305 251 210 222 229 213 225 226 223 222 219 206 208 209 202 206 188 165 155 174 175 169 162 154 157 179 188 201 191 172 171 175 177 183 163 151 151 142 144 147 171 181
65 66 70 65 51 53 51 43 50 63 66 59 53 55 51 45 40 45 35 19 10 21 26 26 30 33 33 31 28 32 35 35 35 32 33 39 32 28 22 24 18 11 15 357 326 309 286 271 229 214 221 226 204 202 199 209 219 212 212 204 170 187 174 166 169 175 172 170 181 198 205 202 188 177 177 179 181 164 150 151 159 159 177 158 138
71 69 68 67 62 60 55 42 27 28 32 47 62 62 53 45 43 36 15 355 7 18 25 29 32 32 32 30 27 24 28 30 26 26 31 35 27 27 28 21 16 16 19 19 12 346 305 292 304 287 256 254 223 184 172 197 229 246 248 238 194 196 181 157 165 176 181 185 183 181 194 196 189 182 171 173 167 154 148 141 164 157 138 132 140
62 57 46 69 66 53 45 38 26 31 32 35 55 54 48 44 42 24 12 24 31 35 37 39 37 36 34 31 27 26 25 23 25 25 31 31 23 25 25 22 20 18 18 15 9 3 0 344 323 289 259 264 259 262 177 174 195 219 240 281 294 290 182 183 167 180 195 194 188 185 181 169 175 174 161 155 150 147 142 151 152 141 138 130 119
69 77 64 63 65 60 59 48 44 41 40 41 57 59 48 44 28 1 20 31 38 40 40 40 36 35 35 34 32 31 31 29 25 24 31 29 25 23 26 23 18 26 19 15 9 3 4 3 349 329 326 323 35 100 118 164 142 119 24 329 322 323 286 213 192 191 191 176 168 182 183 170 172 169 155 149 147 145 143 144 139 136 128 122 110
63 50 61 70 76 75 68 54 43 46 48 49 51 65 56 47 5 10 27 32 37 42 47 45 37 28 25 20 23 28 28 28 27 26 28 22 24 20 25 12 15 23 20 15 10 6 4 348 345 339 326 324 320 345 97 91 95 106 97 69 31 5 331 294 270 259 161 184 183 174 167 162 167 158 142 136 130 133 137 137 134 131 125 117 122
58 66 73 83 78 71 71 66 44 36 42 42 45 57 62 29 0 27 34 49 53 52 50 47 43 41 32 25 28 17 19 20 21 26 27 21 17 11 17 11 26 17 10 11 4 2 357 348 335 332 327 324 318 310 321 120 131 116 89 61 54 42 31 75 23 356 109 129 133 130 124 124 140 144 138 139 141 143 140 136 133 129 121 125 124
79 92 92 79 83 78 74 74 65 31 43 41 47 43 46 27 28 18 28 36 42 40 38 33 31 32 36 40 49 30 16 20 21 18 22 22 17 15 7 3 4 9 12 9 3 358 349 338 328 324 321 318 317 298 263 215 197 148 133 98 68 66 62 61 44 30 54 74 99 115 141 136 119 50 36 85 114 111 103 100 106 109 120 121 125
87 85 91 88 87 96 94 88 83 67 68 66 57 45 29 26 19 20 33 47 44 39 38 25 16 13 15 16 19 16 24 22 22 26 20 8 13 18 11 359 347 353 353 343 341 333 324 303 320 318 316 310 302 301 281 246 252 186 149 145 141 128 122 120 98 78 77 71 84 69 56 33 63 70 65 35 24 61 96 113 114 113 106 102 98
77 70 85 99 107 97 97 90 84 79 82 73 64 50 37 38 26 23 55 68 60 41 34 23 9 11 11 5 11 12 11 11 1 1 1 1 1 345 350 316 284 215 285 288 296 288 282 280 285 292 304 307 300 291 277 245 224 194 169 156 141 144 146 140 151 138 106 96 86 77 66 59 45 80 89 129 215 122 97 96 103 101 115 118 117
82 80 81 81 77 94 89 83 72 71 80 78 65 48 30 25 26 19 50 78 71 55 41 17 7 17 7 9 11 9 5 5 4 0 353 341 340 341 332 332 313 326 325 303 244 243 261 306 290 269 238 264 289 285 296 307 226 198 182 159 150 150 149 139 158 163 152 155 152 141 138 125 122 107 271 243 152 143 130 117 116 131 129 111 111
99 76 56 60 54 68 78 72 61 63 70 71 66 38 34 18 31 28 61 83 80 63 39 9 13 8 4 10 8 1 353 352 360 0 357 357 339 334 335 331 316 323 330 333 337 301 285 290 257 284 293 273 268 278 286 284 236 199 184 168 166 165 154 154 160 174 78 132 146 154 163 167 161 151 160 181 188 151 162 153 168 156 139 135 140